Location: Bu�n Treun
(12.1333°N, 108.3167°E)
Time: 08:25:06
(UTC+00:00)

N. Korean satellite - Pass Details

Date: 18 June 2021
Orbit: 451 x 497 km, 97.2° (Epoch: 27 July)

Event Time Altitude Azimuth Distance (km) Brightness Sun altitude
Rises 21:14:05 0° 31° (NNE) 2,556 11.3 -15.9°
Reaches altitude 10° 21:16:28 10° 46° (NE) 1,681 10.5 -15.4°
Maximum altitude 21:19:21 22° 100° (E) 1,107 9.0 -14.8°
Drops below altitude 10° 21:22:15 10° 152° (SSE) 1,692 9.3 -14.2°
Sets 21:24:39 0° 168° (SSE) 2,576 10.1 -13.6°
